Wind_Speed
6 6 6 7 8 8 8 7 6 7 7 7 7 7 6 6 7 8 8 8 8 8 8 7 7 7 7 6 5 5 4 4 4 4 4 4 5 6 6 7 8 9 10 10
5 7 7 7 8 8 8 7 7 7 7 7 7 6 6 6 7 8 8 8 8 8 8 8 8 7 7 6 5 5 5 5 5 5 5 5 5 6 6 7 8 9 10 10
5 7 8 8 9 9 9 8 7 6 6 7 6 6 6 6 7 8 8 9 9 9 9 8 8 7 6 6 5 5 5 5 5 5 5 5 5 6 6 7 8 9 9 10
7 7 8 9 10 9 9 8 8 6 6 6 6 6 7 7 7 8 9 9 8 8 9 8 8 8 7 6 6 6 6 6 5 5 5 5 5 5 6 7 8 8 8 9
6 7 7 9 10 10 9 9 8 7 6 6 6 6 7 8 8 8 9 9 9 9 9 8 8 7 7 7 6 6 6 5 5 5 5 4 4 5 5 6 7 7 8 9
6 7 8 9 10 11 10 9 8 7 7 6 6 7 8 9 9 9 10 10 9 9 9 8 7 7 7 7 6 6 5 5 5 5 5 4 4 5 5 5 6 7 7 8
5 6 7 8 9 10 11 10 9 7 7 6 7 9 9 10 9 9 9 10 10 10 9 9 8 7 7 7 6 6 6 5 5 5 5 5 5 5 5 6 6 7 7 8
5 5 6 7 9 10 11 11 10 8 7 7 8 10 10 9 9 9 10 10 10 10 9 9 8 7 8 7 7 6 6 6 6 6 6 5 6 6 5 6 7 7 7 8
5 5 6 7 8 10 11 11 10 8 7 6 7 9 9 9 9 9 10 10 10 10 9 9 8 7 8 8 7 6 6 6 6 5 5 5 5 5 6 6 6 6 7 8
6 6 6 7 8 10 11 11 10 8 7 7 6 7 8 8 9 9 10 10 11 11 10 9 9 8 9 9 8 7 7 7 6 5 5 5 6 6 6 6 7 7 7 8
7 7 7 7 8 9 11 10 9 8 7 6 7 8 10 8 9 10 10 10 10 11 11 10 10 9 9 9 9 9 8 7 7 6 6 6 6 7 7 7 7 7 7 8
9 8 8 6 7 9 10 11 10 10 9 9 9 9 10 9 9 9 10 10 10 11 11 11 11 10 10 9 9 9 8 8 8 8 7 7 7 7 7 8 7 8 8 10
10 9 8 7 7 8 9 10 11 11 11 10 10 10 11 10 9 10 10 10 11 11 11 11 11 11 11 10 9 9 9 9 9 9 8 8 8 8 8 8 8 9 10 10
11 10 8 8 8 7 9 10 10 11 11 11 11 11 11 11 10 10 11 11 11 11 11 10 11 11 10 10 10 10 10 10 10 10 9 9 9 9 9 9 9 10 11 11
12 12 10 9 10 10 10 10 11 11 11 11 11 12 11 12 12 11 11 11 11 11 11 10 11 11 11 11 11 11 11 11 11 11 11 10 10 10 10 10 11 11 12 13
14 13 12 11 11 11 12 12 11 11 12 12 12 13 13 13 13 12 11 11 11 12 12 11 11 12 12 12 13 12 12 12 12 12 12 11 11 11 11 11 12 12 13 14
15 14 14 14 13 14 14 13 13 13 12 13 13 14 14 14 14 13 12 12 12 12 12 12 12 12 13 13 13 13 13 13 13 13 13 12 12 13 12 13 13 13 14 15
16 16 16 15 15 15 14 14 14 14 13 14 14 15 16 16 15 15 14 13 13 13 13 13 13 13 13 14 14 14 14 14 14 14 14 14 14 14 14 14 15 15 15 16
19 18 18 18 18 17 15 15 16 15 14 14 15 16 17 17 17 16 15 15 14 15 15 15 15 15 14 14 15 15 15 15 15 15 15 15 16 16 16 16 16 16 17 17
21 20 20 20 20 18 16 17 17 17 16 15 16 17 18 18 18 16 16 16 15 15 16 16 15 15 15 15 16 16 16 16 16 16 17 17 18 18 18 18 18 18 19 19
23 22 22 21 21 19 18 18 19 18 17 17 18 18 18 18 18 17 18 17 16 16 16 16 16 16 16 16 17 17 18 17 18 18 19 19 19 19 20 20 20 21 21 22
23 23 22 22 22 21 20 20 21 21 21 20 19 19 18 18 19 18 18 18 17 17 17 17 17 17 17 18 18 19 19 19 20 20 20 21 21 21 22 22 22 23 23 24
26 24 23 23 23 22 22 23 23 22 22 22 21 20 20 20 19 19 18 18 18 18 18 18 18 18 19 19 20 20 21 21 22 22 22 22 23 23 23 24 24 25 26 26
28 26 26 25 24 24 25 25 24 24 24 24 23 22 22 21 20 20 20 20 20 20 20 20 20 20 20 21 21 22 22 23 24 23 24 24 25 25 25 25 26 27 28 28
28 28 29 28 26 26 26 26 26 26 25 24 24 24 24 23 22 21 22 21 21 21 21 21 21 22 22 23 23 23 23 24 25 25 25 26 26 27 27 27 28 29 30 30
28 29 29 29 28 28 27 28 27 26 26 26 25 25 25 25 25 24 24 23 23 23 23 23 24 24 24 24 24 25 25 26 26 27 27 27 28 28 28 29 30 31 31 32
Wind_Direction
184 191 185 185 186 187 191 201 201 202 207 208 212 217 217 215 211 215 218 222 215 211 215 210 215 220 224 228 234 234 239 254 268 284 290 298 307 313 318 323 327 329 331 333
186 187 187 189 192 191 188 196 201 200 204 211 212 215 219 227 222 218 220 221 222 216 213 210 215 218 222 228 235 240 243 255 268 277 285 295 304 314 321 326 329 331 332 334
185 187 190 194 196 195 195 200 202 199 202 211 218 218 223 232 234 229 227 224 224 220 215 214 218 220 224 225 233 242 251 257 268 275 287 295 303 313 320 326 329 331 332 334
183 195 195 200 198 197 197 203 201 201 205 215 219 232 231 240 237 232 231 230 227 221 216 215 221 224 221 225 232 245 252 260 266 274 282 291 302 312 320 326 329 333 336 338
193 195 201 199 196 199 199 201 202 205 211 214 231 239 245 237 244 237 230 228 223 219 222 226 226 220 219 226 233 243 249 257 263 272 279 288 301 310 317 323 331 339 342 342
210 207 206 205 203 201 200 200 202 204 211 224 233 243 245 242 243 238 231 227 222 220 223 229 228 220 220 227 237 241 248 253 261 269 275 283 293 301 310 320 328 335 339 342
213 216 216 215 210 204 202 202 204 210 222 237 242 250 252 251 246 243 240 230 225 223 228 228 227 222 224 229 239 242 244 252 260 266 274 281 288 295 305 315 321 330 337 342
224 231 228 224 216 209 204 204 206 216 224 237 244 254 253 249 245 244 242 232 227 227 227 223 224 224 224 233 243 246 246 252 260 265 271 281 288 293 301 309 317 326 334 340
216 240 238 231 217 210 204 206 209 218 221 240 253 255 251 245 249 247 241 234 229 224 224 224 226 227 226 234 242 247 247 251 260 266 272 281 289 293 296 305 314 320 329 338
222 227 235 232 221 215 216 212 208 216 228 229 244 268 260 252 257 252 244 236 229 225 223 225 232 232 231 235 240 243 246 250 255 264 274 282 286 290 292 299 309 316 323 332
236 231 227 231 228 221 220 221 221 216 222 236 241 245 258 262 260 253 244 235 230 227 226 229 232 234 234 234 237 242 247 249 253 262 271 277 281 284 287 295 304 310 318 326
229 231 228 236 228 225 222 220 218 217 219 230 247 258 262 264 256 249 242 236 231 232 230 230 233 234 233 235 237 239 248 252 257 263 270 275 280 282 287 293 301 307 315 322
225 226 229 242 234 229 226 226 222 222 223 232 244 254 260 264 254 247 242 237 235 234 233 234 236 234 234 234 237 241 248 256 261 265 269 273 278 281 284 290 297 303 310 317
228 227 226 232 238 239 231 226 227 229 226 233 240 249 254 256 254 246 241 238 236 235 234 236 237 236 236 238 242 245 250 255 259 263 268 273 276 279 283 288 295 300 306 313
231 226 229 239 236 234 238 234 232 233 231 237 239 245 252 252 252 247 240 237 239 238 238 240 241 241 240 241 244 248 252 255 258 262 266 271 272 277 283 288 293 298 304 309
232 228 232 239 241 240 245 245 242 239 235 237 239 243 245 249 249 248 244 242 242 242 243 244 245 245 245 245 245 247 252 257 259 261 266 268 270 276 281 286 291 295 300 305
236 234 235 238 243 246 249 251 250 249 245 241 242 245 245 249 251 249 248 247 248 247 247 249 252 251 251 251 249 249 254 258 261 263 266 269 272 276 279 284 289 293 297 301
237 238 241 240 241 244 250 255 254 252 247 245 243 243 244 247 251 250 251 252 251 253 252 253 254 255 256 253 251 254 257 261 263 265 268 272 274 276 280 284 288 292 296 299
238 241 244 241 241 244 247 253 255 255 250 249 248 246 247 249 251 253 253 255 254 253 253 255 255 258 256 253 254 256 260 263 265 267 269 272 275 277 280 283 286 290 294 297
241 242 245 243 243 244 248 250 253 255 254 251 250 250 251 251 252 252 252 255 257 255 255 257 257 257 257 257 258 260 263 265 267 268 269 272 276 277 280 282 285 289 293 296
244 244 245 245 247 246 247 249 252 253 252 249 250 250 252 252 252 253 253 253 257 256 255 257 257 258 259 259 260 262 264 265 268 269 270 273 275 277 278 281 284 288 292 295
246 248 247 247 248 246 247 249 250 251 250 251 252 252 253 254 254 255 256 255 254 254 255 256 258 259 260 261 262 264 265 267 269 271 273 275 276 276 278 280 284 286 290 294
242 245 248 248 249 249 247 250 252 253 253 253 254 255 256 256 256 256 257 255 254 254 255 256 258 259 261 263 265 266 268 270 272 273 274 276 277 278 279 281 284 287 290 293
242 244 247 249 249 249 250 251 252 254 254 254 256 256 256 257 257 256 256 255 255 256 257 259 259 260 262 264 266 267 269 271 272 273 275 277 278 279 280 282 285 288 290 292
243 245 246 248 248 248 250 252 253 255 256 256 255 255 255 255 256 256 257 257 256 257 259 260 260 261 262 265 267 269 270 272 273 275 277 278 278 280 281 284 287 289 291 292
242 245 247 247 246 247 248 249 252 254 255 255 255 255 255 256 256 256 256 257 257 258 260 260 261 262 264 266 268 270 273 274 275 277 279 280 281 281 283 286 288 289 290 292
Height
5834 5836 5837 5839 5841 5842 5844 5846 5847 5849 5851 5853 5854 5856 5857 5859 5861 5862 5863 5865 5867 5868 5870 5872 5873 5875 5876 5878 5879 5880 5881 5882 5883 5883 5884 5884 5884 5884 5883 5883 5882 5881 5880 5879
5834 5836 5837 5838 5840 5842 5844 5846 5847 5849 5851 5853 5854 5856 5857 5859 5860 5862 5863 5865 5866 5868 5869 5871 5873 5874 5875 5877 5878 5879 5880 5881 5882 5883 5883 5883 5883 5883 5883 5882 5881 5880 5879 5878
5833 5836 5837 5838 5840 5842 5844 5845 5847 5849 5851 5852 5854 5856 5857 5858 5860 5861 5862 5864 5866 5867 5869 5870 5872 5873 5875 5876 5877 5878 5879 5880 5881 5881 5882 5882 5882 5882 5881 5881 5880 5879 5878 5877
5833 5835 5836 5838 5840 5842 5843 5845 5847 5849 5851 5852 5854 5856 5857 5857 5859 5860 5862 5863 5865 5866 5868 5869 5871 5872 5874 5875 5876 5877 5878 5879 5880 5880 5881 5881 5881 5881 5881 5880 5879 5878 5877 5876
5833 5835 5836 5837 5839 5841 5843 5845 5847 5849 5850 5852 5853 5855 5856 5857 5858 5859 5861 5862 5864 5865 5867 5868 5870 5871 5873 5874 5875 5876 5877 5878 5879 5879 5880 5880 5880 5880 5880 5879 5879 5878 5877 5875
5833 5834 5836 5837 5839 5841 5843 5846 5847 5849 5850 5852 5853 5854 5855 5856 5857 5858 5860 5861 5863 5865 5866 5867 5869 5870 5872 5873 5874 5875 5876 5877 5878 5878 5879 5879 5879 5879 5879 5879 5878 5877 5876 5875
5833 5834 5835 5837 5838 5840 5843 5845 5847 5848 5849 5851 5852 5853 5855 5855 5856 5857 5858 5860 5862 5863 5865 5866 5868 5869 5871 5872 5873 5874 5875 5876 5877 5877 5878 5878 5878 5878 5878 5878 5877 5876 5875 5874
5833 5834 5835 5836 5838 5840 5842 5844 5847 5848 5849 5851 5851 5852 5854 5854 5855 5856 5857 5859 5860 5862 5864 5865 5867 5868 5870 5871 5872 5873 5874 5875 5876 5876 5877 5877 5877 5877 5877 5877 5876 5875 5874 5873
5833 5834 5834 5835 5837 5839 5841 5843 5845 5847 5848 5849 5850 5851 5852 5853 5854 5855 5856 5858 5859 5861 5862 5864 5866 5867 5868 5870 5871 5872 5873 5874 5875 5875 5875 5876 5876 5876 5876 5876 5875 5874 5873 5872
5831 5833 5833 5834 5836 5838 5840 5842 5844 5845 5847 5848 5849 5850 5850 5851 5853 5854 5855 5856 5858 5859 5861 5863 5864 5866 5867 5868 5870 5871 5872 5873 5873 5874 5874 5874 5874 5875 5875 5874 5874 5873 5872 5871
5831 5832 5833 5834 5835 5837 5839 5841 5842 5844 5845 5847 5848 5851 5849 5850 5851 5852 5853 5855 5856 5858 5860 5861 5863 5864 5866 5867 5868 5870 5871 5871 5872 5872 5873 5873 5873 5873 5873 5873 5873 5872 5871 5870
5829 5831 5832 5833 5835 5836 5838 5839 5841 5843 5845 5846 5846 5850 5848 5849 5850 5851 5852 5853 5855 5857 5858 5860 5861 5862 5864 5865 5867 5868 5869 5870 5870 5871 5871 5872 5872 5872 5872 5872 5871 5870 5870 5868
5828 5830 5831 5833 5835 5835 5836 5838 5839 5841 5842 5844 5845 5848 5846 5847 5848 5849 5850 5852 5853 5855 5856 5858 5859 5861 5862 5863 5865 5866 5867 5868 5868 5869 5870 5870 5870 5870 5870 5870 5869 5869 5868 5867
5827 5828 5830 5832 5832 5833 5834 5836 5837 5839 5840 5842 5843 5844 5844 5845 5846 5847 5849 5850 5852 5853 5854 5856 5857 5858 5860 5861 5863 5864 5865 5866 5866 5867 5868 5868 5868 5868 5868 5868 5867 5867 5866 5865
5824 5826 5827 5829 5830 5831 5832 5834 5835 5837 5838 5840 5841 5842 5842 5843 5844 5845 5847 5848 5850 5851 5852 5854 5855 5856 5858 5859 5860 5861 5862 5863 5864 5865 5865 5865 5866 5866 5866 5866 5865 5864 5863 5862
5822 5824 5825 5827 5828 5829 5830 5832 5833 5835 5836 5837 5838 5839 5840 5840 5842 5843 5844 5846 5847 5849 5850 5851 5853 5854 5855 5856 5857 5858 5859 5861 5861 5862 5862 5863 5863 5863 5863 5863 5862 5862 5861 5860
5819 5821 5823 5824 5825 5826 5828 5830 5831 5832 5833 5834 5835 5837 5837 5838 5839 5841 5842 5843 5845 5846 5847 5849 5850 5851 5852 5853 5854 5855 5857 5857 5858 5859 5859 5860 5860 5860 5860 5860 5859 5859 5858 5856
5815 5817 5819 5820 5823 5823 5827 5827 5827 5828 5830 5831 5832 5833 5834 5835 5837 5838 5839 5840 5842 5843 5844 5846 5847 5848 5849 5850 5851 5852 5853 5854 5855 5856 5856 5856 5857 5857 5857 5856 5856 5855 5854 5853
5811 5813 5815 5817 5818 5819 5822 5823 5824 5825 5827 5828 5829 5829 5831 5832 5833 5835 5836 5837 5838 5840 5841 5842 5843 5844 5845 5846 5847 5849 5850 5850 5851 5852 5852 5853 5853 5853 5853 5852 5851 5851 5850 5849
5807 5809 5811 5812 5814 5816 5819 5819 5820 5822 5823 5824 5824 5825 5827 5828 5830 5832 5832 5834 5835 5836 5837 5838 5839 5840 5841 5843 5844 5845 5846 5847 5847 5848 5848 5848 5848 5848 5848 5847 5847 5846 5845 5844
5802 5804 5806 5808 5809 5812 5814 5814 5816 5819 5820 5820 5820 5822 5823 5824 5826 5828 5828 5830 5831 5832 5833 5834 5835 5836 5838 5838 5839 5840 5841 5842 5843 5843 5843 5843 5843 5843 5843 5842 5842 5841 5840 5838
5797 5799 5801 5803 5804 5809 5809 5809 5812 5813 5813 5815 5816 5818 5819 5820 5821 5823 5824 5825 5827 5828 5829 5830 5831 5832 5833 5834 5835 5836 5837 5837 5837 5838 5838 5838 5838 5838 5837 5837 5836 5835 5834 5832
5791 5794 5796 5798 5801 5802 5803 5804 5805 5807 5808 5810 5811 5813 5814 5815 5817 5818 5819 5820 5822 5823 5824 5826 5827 5828 5829 5829 5830 5831 5831 5831 5832 5832 5832 5832 5832 5831 5831 5830 5830 5828 5827 5826
5784 5787 5789 5791 5794 5795 5796 5798 5799 5801 5803 5805 5806 5808 5809 5810 5812 5813 5814 5815 5817 5818 5819 5820 5821 5822 5823 5824 5824 5825 5825 5826 5826 5826 5826 5825 5825 5825 5824 5823 5822 5821 5820 5818
5778 5780 5782 5784 5787 5789 5790 5791 5793 5795 5797 5799 5800 5802 5803 5805 5806 5808 5809 5810 5811 5812 5814 5815 5816 5817 5817 5818 5818 5819 5819 5819 5819 5819 5819 5818 5818 5817 5816 5816 5814 5813 5811 5809
5771 5773 5775 5777 5780 5782 5783 5785 5787 5789 5791 5792 5794 5795 5797 5799 5800 5801 5803 5804 5805 5806 5807 5808 5809 5810 5811 5811 5812 5812 5812 5812 5812 5812 5811 5811 5810 5809 5808 5807 5806 5804 5803 5801